This is the latest recevied weather packets stored in our database for station/object JA3YAI-13. If no packets are shown the sender has not sent any weather packets the latest 10 day(s).
| Time | Temp. | Humidity | Pressure | Rain* | Wind** | Luminosity | Snow |
|---|---|---|---|---|---|---|---|
| 1777940185 | 15.56° C | 69% | 1013.8 hPa | 0 mm | - | - | - |
| 1777939584 | 15.56° C | 67% | 1013.6 hPa | 0 mm | - | - | - |
| 1777938984 | 15.56° C | 66% | 1013.5 hPa | 0 mm | - | - | - |
| 1777938383 | 15.56° C | 67% | 1013.7 hPa | 0 mm | - | - | - |
| 1777937785 | 15.56° C | 68% | 1013.6 hPa | 0 mm | - | - | - |
| 1777937184 | 15° C | 63% | 1013.9 hPa | 0 mm | - | - | - |
| 1777936584 | 14.44° C | 63% | 1013.8 hPa | 0 mm | - | - | - |
| 1777935984 | 13.89° C | 69% | 1013.9 hPa | 0 mm | - | - | - |
| 1777935385 | 12.78° C | 70% | 1013.8 hPa | 0 mm | - | - | - |
| 1777934785 | 12.78° C | 74% | 1013.5 hPa | 0 mm | - | - | - |
| 1777934185 | 12.22° C | 77% | 1013.4 hPa | 0 mm | - | - | - |
| 1777933584 | 11.67° C | 82% | 1013.3 hPa | 0 mm | - | - | - |
| 1777932984 | 11.67° C | 89% | 1013.5 hPa | 0 mm | - | - | - |
| 1777932385 | 10.56° C | 92% | 1013.4 hPa | 0 mm | - | - | - |
| 1777931785 | 10° C | 95% | 1013.2 hPa | 0 mm | - | - | - |
| 1777931184 | 10° C | 96% | 1013.1 hPa | 0 mm | - | - | - |
| 1777930584 | 9.44° C | 96% | 1013.2 hPa | 0 mm | - | - | - |
| 1777929985 | 8.89° C | 96% | 1013.1 hPa | 0 mm | - | - | - |
| 1777929385 | 8.33° C | 97% | 1012.9 hPa | 0 mm | - | - | - |
| 1777928784 | 7.78° C | 97% | 1012.6 hPa | 0 mm | - | - | - |
| 1777928184 | 7.78° C | 97% | 1012.4 hPa | 0 mm | - | - | - |
| 1777927584 | 7.78° C | 97% | 1012.4 hPa | 0 mm | - | - | - |
| 1777926985 | 7.78° C | 97% | 1012.4 hPa | 0 mm | - | - | - |
| 1777926385 | 7.78° C | 97% | 1011.9 hPa | 0 mm | - | - | - |
| 1777925784 | 7.22° C | 96% | 1011.9 hPa | 0 mm | - | - | - |
* Rain latest hour (hover to see other rain measurements)
** Current wind speed in m/s (hover to see current wind gust speed)